D8954 Weather Reports


Display with metric or nautical units.
time (UTC)temp
F
wind
direction
speed
MPH
gust
MPH
rain 1hr
in
rain 24hr
in
rain mn
in
humidity
%
barometer
mb
20260502164004 72 174 1.0 2.0 0.00 0.00 0.00 38 1016.5
20260502163503 72 170 2.0 3.0 0.00 0.00 0.00 38 1016.6
20260502162004 73 146 2.0 6.0 0.00 0.00 0.00 36 1016.7
20260502161003 73 182 2.0 8.0 0.00 0.00 0.00 38 1016.9
20260502160504 73 125 3.0 7.0 0.00 0.00 0.00 37 1017.0
20260502152004 74 201 2.0 9.0 0.00 0.00 0.00 33 1017.5
20260502151504 74 133 2.0 6.0 0.00 0.00 0.00 37 1017.5
20260502151003 74 157 3.0 6.0 0.00 0.00 0.00 36 1017.6
20260502150506 74 145 4.0 9.0 0.00 0.00 0.00 34 1017.7
20260502130508 74 189 3.0 7.0 0.00 0.00 0.00 33 1019.1
20260502123010 74 181 2.0 7.0 0.00 0.00 0.00 39 1019.3
20260502122509 74 151 3.0 7.0 0.00 0.00 0.00 42 1019.3
20260502122008 73 108 2.0 3.0 0.00 0.00 0.00 41 1019.4
20260502121009 73 169 3.0 6.0 0.00 0.00 0.00 39 1019.5
20260502120508 74 113 4.0 7.0 0.00 0.00 0.00 39 1019.7
20260502115509 72 80 2.0 3.0 0.00 0.00 0.00 44 1019.8
20260502115012 72 160 3.0 6.0 0.00 0.00 0.00 42 1019.9
20260502114508 73 114 3.0 7.0 0.00 0.00 0.00 44 1019.9
20260502114008 73 126 2.0 8.0 0.00 0.00 0.00 43 1020.0
20260502113508 72 179 2.0 5.0 0.00 0.00 0.00 44 1020.1
20260502113010 72 176 2.0 6.0 0.00 0.00 0.00 45 1020.2
20260502112509 72 198 3.0 6.0 0.00 0.00 0.00 43 1020.3
20260502112012 72 137 3.0 7.0 0.00 0.00 0.00 44 1020.4
20260502111008 72 100 2.0 6.0 0.00 0.00 0.00 44 1020.5
20260502110508 71 123 5.0 8.0 0.00 0.00 0.00 42 1020.6
20260502110009 72 147 3.0 6.0 0.00 0.00 0.00 43 1020.6
20260502105008 71 197 2.0 6.0 0.00 0.00 0.00 42 1020.8
20260502104509 71 110 3.0 7.0 0.00 0.00 0.00 47 1020.8
20260502104009 70 133 2.0 6.0 0.00 0.00 0.00 48 1020.9
20260502103010 70 130 3.0 8.0 0.00 0.00 0.00 47 1021.0
20260502102509 70 81 2.0 6.0 0.00 0.00 0.00 45 1021.1
20260502102009 70 95 3.0 7.0 0.00 0.00 0.00 46 1021.3
20260502101509 70 134 3.0 6.0 0.00 0.00 0.00 47 1021.3
20260502101008 69 53 2.0 3.0 0.00 0.00 0.00 48 1021.3
20260502091508 67 112 1.0 5.0 0.00 0.00 0.00 53 1021.6
20260502090508 66 125 2.0 3.0 0.00 0.00 0.00 53 1021.7
20260502071509 57 153 2.0 5.0 0.00 0.00 0.00 64 1022.3
20260502071008 57 114 1.0 3.0 0.00 0.00 0.00 63 1022.4
20260502070509 57 121 2.0 3.0 0.00 0.00 0.00 66 1022.4
20260502070009 56 137 1.0 6.0 0.00 0.00 0.00 66 1022.5
20260502065509 56 144 1.0 3.0 0.00 0.00 0.00 66 1022.5
20260502065009 55 152 1.0 3.0 0.00 0.00 0.00 66 1022.6
20260502064509 55 167 1.0 3.0 0.00 0.00 0.00 66 1022.5
20260502064009 55 175 1.0 3.0 0.00 0.00 0.00 68 1022.6
20260502063509 54 183 1.0 1.0 0.00 0.00 0.00 67 1022.6
20260502062509 54 183 1.0 2.0 0.00 0.00 0.00 66 1022.6
20260502062009 54 198 1.0 2.0 0.00 0.00 0.00 67 1022.6
20260502061509 53 199 1.0 2.0 0.00 0.00 0.00 66 1022.7
20260502061009 53 201 0.0 2.0 0.00 0.00 0.00 67 1022.7
20260502060508 53 202 0.0 1.0 0.00 0.00 0.00 66 1022.7
20260502060009 52 202 0.0 2.0 0.00 0.00 0.00 65 1022.6
20260502055509 52 204 0.0 2.0 0.00 0.00 0.00 66 1022.6
20260502055009 52 204 0.0 1.0 0.00 0.00 0.00 66 1022.7
20260502054508 51 205 0.0 1.0 0.00 0.00 0.00 67 1022.7
20260502054008 51 205 0.0 0.0 0.00 0.00 0.00 68 1022.7
20260502053509 50 206 0.0 0.0 0.00 0.00 0.00 69 1022.6
20260502053010 50 205 0.0 1.0 0.00 0.00 0.00 68 1022.7
20260502052509 50 206 1.0 2.0 0.00 0.00 0.00 69 1022.7
20260502051508 50 229 0.0 2.0 0.00 0.00 0.00 70 1022.7
20260502051008 49 229 0.0 2.0 0.00 0.00 0.00 72 1022.7
20260502050508 48 229 0.0 2.0 0.00 0.00 0.00 72 1022.7
20260502050008 47 229 0.0 1.0 0.00 0.00 0.00 72 1022.6
20260502045508 47 229 1.0 2.0 0.00 0.00 0.00 73 1022.7
20260502045009 47 229 0.0 2.0 0.00 0.00 0.00 73 1022.6
20260502044512 46 229 0.0 1.0 0.00 0.00 0.00 73 1022.7
20260502044023 46 229 0.0 0.0 0.00 0.00 0.00 74 1022.7
20260502043508 46 229 0.0 0.0 0.00 0.00 0.00 73 1022.7
20260502043009 46 229 0.0 2.0 0.00 0.00 0.00 72 1022.6
20260502042508 46 229 0.0 2.0 0.00 0.00 0.00 72 1022.6
20260502042008 46 229 0.0 2.0 0.00 0.00 0.00 72 1022.7
20260502041508 45 229 1.0 2.0 0.00 0.00 0.00 71 1022.7
20260502041009 46 229 1.0 2.0 0.00 0.00 0.00 70 1022.7
20260502040509 47 229 1.0 2.0 0.00 0.00 0.00 67 1022.7
20260502040008 48 229 1.0 2.0 0.00 0.00 0.00 66 1022.7
20260502035508 49 229 2.0 2.0 0.00 0.00 0.00 65 1022.8
20260502035009 48 227 2.0 2.0 0.00 0.00 0.00 66 1022.9
20260502034508 47 226 1.0 3.0 0.00 0.00 0.00 67 1022.9
20260502034009 48 245 2.0 3.0 0.00 0.00 0.00 66 1022.8
20260502033508 48 244 2.0 3.0 0.00 0.00 0.00 66 1022.9
20260502032509 47 243 2.0 3.0 0.00 0.00 0.00 68 1022.9
20260502032008 47 242 1.0 2.0 0.00 0.00 0.00 68 1022.9
20260502031008 49 237 2.0 3.0 0.00 0.00 0.00 65 1022.9
20260502030509 47 236 2.0 2.0 0.00 0.00 0.00 68 1022.9
20260502030008 46 236 0.0 2.0 0.00 0.00 0.00 69 1022.9
20260502025509 48 236 1.0 2.0 0.00 0.00 0.00 67 1023.0
20260502025008 47 235 2.0 3.0 0.00 0.00 0.00 68 1023.1
20260502024509 47 235 1.0 2.0 0.00 0.00 0.00 67 1023.0
20260502024008 48 235 1.0 2.0 0.00 0.00 0.00 67 1023.1
20260502023508 47 235 0.0 2.0 0.00 0.00 0.00 68 1023.1
20260502023010 47 235 1.0 2.0 0.00 0.00 0.00 68 1023.1
20260502022508 47 235 1.0 2.0 0.00 0.00 0.00 69 1023.1
20260502022008 46 235 1.0 1.0 0.00 0.00 0.00 70 1023.1
20260502021509 46 235 0.0 2.0 0.00 0.00 0.00 68 1023.1
20260502021008 48 235 2.0 3.0 0.00 0.00 0.00 66 1023.2
20260502020509 49 235 2.0 3.0 0.00 0.00 0.00 65 1023.2
20260502020008 49 234 1.0 3.0 0.00 0.00 0.00 65 1023.2
20260502015508 48 234 0.0 1.0 0.00 0.00 0.00 67 1023.2
20260502015008 47 234 0.0 2.0 0.00 0.00 0.00 68 1023.3
20260502014508 48 234 1.0 1.0 0.00 0.00 0.00 66 1023.4
20260502014008 48 234 0.0 0.0 0.00 0.00 0.00 66 1023.4
20260502013509 47 234 0.0 0.0 0.00 0.00 0.00 68 1023.4
20260502013009 48 234 0.0 0.0 0.00 0.00 0.00 67 1023.5
20260502012008 49 234 1.0 2.0 0.00 0.00 0.00 65 1023.5
20260502011508 51 234 1.0 2.0 0.00 0.00 0.00 62 1023.6
20260502010508 49 234 0.0 1.0 0.00 0.00 0.00 65 1023.7
20260502010009 51 234 0.0 2.0 0.00 0.00 0.00 63 1023.8
20260502004508 49 234 0.0 2.0 0.00 0.00 0.00 65 1023.9
20260502004008 50 234 1.0 2.0 0.00 0.00 0.00 64 1023.9
20260502003508 52 234 2.0 2.0 0.00 0.00 0.00 61 1023.8
20260502003010 52 233 1.0 2.0 0.00 0.00 0.00 61 1023.9
20260502002509 51 233 1.0 2.0 0.00 0.00 0.00 64 1023.9
20260502002008 53 233 1.0 2.0 0.00 0.00 0.00 61 1023.9
20260502001008 53 232 2.0 2.0 0.00 0.00 0.00 59 1024.0
20260502000008 54 229 2.0 3.0 0.00 0.00 0.00 57 1024.1
20260501235508 53 236 2.0 3.0 0.00 0.00 0.00 58 1024.1
20260501235009 54 238 2.0 3.0 0.00 0.00 0.00 57 1024.2
20260501234508 53 229 2.0 2.0 0.00 0.00 0.00 59 1024.2
20260501234008 54 219 1.0 3.0 0.00 0.00 0.00 58 1024.2
20260501233508 54 212 2.0 3.0 0.00 0.00 0.00 57 1024.1
20260501233025 54 255 2.0 3.0 0.00 0.00 0.00 58 1024.1
20260501232509 53 256 2.0 3.0 0.00 0.00 0.00 59 1024.2
20260501232009 53 245 3.0 3.0 0.00 0.00 0.00 60 1024.2
20260501231008 52 262 2.0 3.0 0.00 0.00 0.00 61 1024.1
20260501230008 57 242 2.0 3.0 0.00 0.00 0.00 52 1024.2
20260501225508 58 222 2.0 5.0 0.00 0.00 0.00 50 1024.1
20260501225009 57 222 3.0 5.0 0.00 0.00 0.00 51 1024.1
20260501224508 56 217 2.0 3.0 0.00 0.00 0.00 53 1024.2
20260501224008 55 219 2.0 3.0 0.00 0.00 0.00 55 1024.3
20260501223009 54 225 2.0 3.0 0.00 0.00 0.00 57 1024.4
20260501222508 55 244 2.0 3.0 0.00 0.00 0.00 56 1024.4
20260501222008 55 247 2.0 3.0 0.00 0.00 0.00 56 1024.4
20260501221508 55 232 2.0 3.0 0.00 0.00 0.00 55 1024.4
20260501221008 55 241 3.0 3.0 0.00 0.00 0.00 56 1024.4
20260501220509 56 239 2.0 3.0 0.00 0.00 0.00 55 1024.3
20260501215508 58 221 2.0 3.0 0.00 0.00 0.00 51 1024.3
20260501215008 58 220 2.0 3.0 0.00 0.00 0.00 51 1024.3
20260501214508 57 221 2.0 3.0 0.00 0.00 0.00 52 1024.3
20260501214011 56 225 2.0 3.0 0.00 0.00 0.00 54 1024.3
20260501213012 56 221 2.0 3.0 0.00 0.00 0.00 54 1024.3
20260501212508 58 214 2.0 2.0 0.00 0.00 0.00 52 1024.2
20260501211508 59 212 2.0 5.0 0.00 0.00 0.00 50 1024.3
20260501210508 59 215 2.0 3.0 0.00 0.00 0.00 52 1024.2
20260501210008 58 211 1.0 3.0 0.00 0.00 0.00 53 1024.2
20260501205508 58 209 2.0 3.0 0.00 0.00 0.00 53 1024.3
20260501205008 57 225 2.0 3.0 0.00 0.00 0.00 55 1024.3
20260501204508 55 244 2.0 2.0 0.00 0.00 0.00 59 1024.3
20260501204008 56 244 1.0 2.0 0.00 0.00 0.00 58 1024.3
20260501203010 57 244 2.0 3.0 0.00 0.00 0.00 55 1024.2
20260501202509 57 244 1.0 2.0 0.00 0.00 0.00 56 1024.2
20260501202008 58 244 1.0 2.0 0.00 0.00 0.00 55 1024.2
20260501201508 58 244 1.0 2.0 0.00 0.00 0.00 54 1024.2
20260501201008 58 244 2.0 3.0 0.00 0.00 0.00 54 1024.2
20260501200508 57 244 1.0 2.0 0.00 0.00 0.00 56 1024.2
20260501195508 58 244 1.0 2.0 0.00 0.00 0.00 55 1024.2
20260501195008 58 245 1.0 3.0 0.00 0.00 0.00 55 1024.1
20260501194019 57 256 2.0 3.0 0.00 0.00 0.00 58 1024.1
20260501193508 57 255 2.0 3.0 0.00 0.00 0.00 57 1024.1
20260501193010 58 249 2.0 3.0 0.00 0.00 0.00 55 1024.0
20260501192509 59 247 2.0 3.0 0.00 0.00 0.00 53 1024.1
20260501192008 59 247 1.0 2.0 0.00 0.00 0.00 52 1024.0
20260501191508 60 248 1.0 2.0 0.00 0.00 0.00 52 1024.0
20260501191008 60 248 1.0 2.0 0.00 0.00 0.00 51 1024.1
20260501190508 60 248 1.0 2.0 0.00 0.00 0.00 51 1024.0
20260501190008 60 248 1.0 2.0 0.00 0.00 0.00 51 1024.0
20260501185508 60 248 2.0 2.0 0.00 0.00 0.00 52 1024.0
20260501185008 59 248 1.0 2.0 0.00 0.00 0.00 54 1023.9
20260501184508 59 248 1.0 2.0 0.00 0.00 0.00 56 1023.9
20260501184008 60 248 1.0 2.0 0.00 0.00 0.00 53 1023.9
20260501183508 60 248 2.0 3.0 0.00 0.00 0.00 52 1024.0
20260501183010 61 204 2.0 2.0 0.00 0.00 0.00 51 1024.0
20260501182508 61 198 1.0 2.0 0.00 0.00 0.00 51 1023.9
20260501182008 61 196 1.0 1.0 0.00 0.00 0.00 51 1023.9
20260501181511 62 196 1.0 2.0 0.00 0.00 0.00 50 1023.9
20260501181008 62 186 1.0 2.0 0.00 0.00 0.00 49 1023.9
20260501180008 63 135 1.0 3.0 0.00 0.00 0.00 47 1023.8
20260501175508 64 153 2.0 9.0 0.00 0.00 0.00 46 1023.8
20260501175008 65 156 2.0 5.0 0.00 0.00 0.00 44 1023.8
20260501174508 65 140 2.0 5.0 0.00 0.00 0.00 44 1023.7
20260501174008 65 156 2.0 7.0 0.00 0.00 0.00 44 1023.8
20260501173507 65 143 2.0 3.0 0.00 0.00 0.00 45 1023.8
20260501173009 65 124 1.0 7.0 0.00 0.00 0.00 44 1023.8
20260501172508 66 140 2.0 7.0 0.00 0.00 0.00 44 1023.8
20260501172008 66 133 2.0 3.0 0.00 0.00 0.00 43 1023.8
20260501171508 66 149 3.0 9.0 0.00 0.00 0.00 43 1023.9